^^
Station Historical Data
Daily Summary for January 04, 2018 Units:  English    Metric   Both
« Previous Day
Next Day »
Daily Weekly Monthly Yearly Custom
  High: Low: Average:
Temperature: 85.3 °F 70.7 °F 79.6 °F
Dew Point: 51.3 °F 43.3 °F 47 °F
Humidity: 47% 24% 33%
Wind Speed: 25.1mph -999.9mph -12.1mph
Wind Gust: 29.0mph - -
Wind- -
Pressure: 30.26 in 29.72 in -
Precipitation: 0.00 in    
Historical Graphs
 
 
Tabular Data for January 04, 2018
Time Temperature Dew Point Pressure Wind Wind Speed Wind Gust Humidity Rainfall Rate (Hourly) solar Conditions
09:07 70.7 °F 49.5 °F 30.26 in North -999.9 mph -999.0 mph 47% 0.00 in meteobridge W/m2
09:15 71.1 °F 49.8 °F 30.26 in ENE 8.9 mph 19.0 mph 47% 0.00 in meteobridge W/m2
09:17 71.2 °F 50.0 °F 30.26 in ENE 10.1 mph 20.0 mph 47% 0.00 in meteobridge W/m2
09:21 72.0 °F 50.0 °F 30.26 in NE 10.1 mph 13.0 mph 46% 0.00 in meteobridge W/m2
09:25 73.0 °F 50.4 °F 30.26 in NE 6.0 mph 12.0 mph 45% 0.00 in meteobridge W/m2
09:29 73.8 °F 50.5 °F 30.26 in NE 4.9 mph 15.0 mph 44% 0.00 in meteobridge W/m2
09:35 73.6 °F 50.4 °F 30.26 in NE 11.0 mph 17.0 mph 44% 0.00 in meteobridge W/m2
09:38 73.8 °F 50.5 °F 30.26 in NNE 17.9 mph 23.0 mph 44% 0.00 in meteobridge W/m2
09:44 73.9 °F 50.7 °F 30.25 in North 13.0 mph 19.0 mph 44% 0.00 in meteobridge W/m2
09:48 73.9 °F 50.0 °F 30.26 in NE 17.0 mph 21.0 mph 43% 0.00 in meteobridge W/m2
09:54 73.9 °F 50.7 °F 30.26 in NE 8.9 mph 21.0 mph 44% 0.00 in meteobridge W/m2
10:00 74.7 °F 50.7 °F 30.26 in NNE 17.9 mph 19.0 mph 43% 0.00 in meteobridge W/m2
10:02 74.7 °F 50.7 °F 30.26 in North 19.0 mph 23.0 mph 43% 0.00 in meteobridge W/m2
10:08 74.8 °F 50.9 °F 30.26 in ENE 8.9 mph 19.0 mph 43% 0.00 in meteobridge W/m2
10:14 75.9 °F 50.5 °F 30.25 in NNE 17.0 mph 21.0 mph 41% 0.00 in meteobridge W/m2
10:20 76.5 °F 50.4 °F 30.26 in NE 13.0 mph 16.0 mph 40% 0.00 in meteobridge W/m2
10:26 77.4 °F 51.1 °F 30.25 in NE 6.9 mph 13.0 mph 40% 0.00 in meteobridge W/m2
10:32 77.7 °F 50.7 °F 30.26 in NE 10.1 mph 14.0 mph 39% 0.00 in meteobridge W/m2
10:38 78.3 °F 51.3 °F 30.25 in East 2.0 mph 12.0 mph 39% 0.00 in meteobridge W/m2
10:44 78.4 °F 50.7 °F 30.26 in NE 14.1 mph 16.0 mph 38% 0.00 in meteobridge W/m2
10:52 78.1 °F 49.6 °F 30.26 in NNW 14.1 mph 24.0 mph 37% 0.00 in meteobridge W/m2
10:54 77.5 °F 50.0 °F 29.72 in NNE 15.0 mph 20.0 mph 38% 0.00 in meteobridge W/m2
11:00 76.6 °F 49.1 °F 30.26 in NNE 8.9 mph 21.0 mph 38% 0.00 in meteobridge W/m2
11:06 77.4 °F 48.4 °F 30.26 in NE 6.0 mph 22.0 mph 36% 0.00 in meteobridge W/m2
11:13 77.2 °F 48.2 °F 30.26 in WNW 2.9 mph 13.0 mph 36% 0.00 in meteobridge W/m2
11:19 78.3 °F 48.4 °F 30.26 in North 11.0 mph 19.0 mph 35% 0.00 in meteobridge W/m2
11:25 78.6 °F 48.7 °F 30.26 in NNW 17.0 mph 18.0 mph 35% 0.00 in meteobridge W/m2
11:31 79.0 °F 44.1 °F 30.26 in NNE 6.9 mph 17.0 mph 29% 0.00 in meteobridge W/m2
11:37 79.9 °F 48.9 °F 30.25 in NNE 16.1 mph 22.0 mph 34% 0.00 in meteobridge W/m2
11:43 79.2 °F 46.8 °F 30.26 in NNE 12.1 mph 18.0 mph 32% 0.00 in meteobridge W/m2
11:49 79.0 °F 46.6 °F 30.25 in NNE 10.1 mph 15.0 mph 32% 0.00 in meteobridge W/m2
11:53 79.2 °F 45.9 °F 30.25 in NE 13.0 mph 24.0 mph 31% 0.00 in meteobridge W/m2
11:59 80.1 °F 45.9 °F 30.25 in ENE 8.1 mph 16.0 mph 30% 0.00 in meteobridge W/m2
12:01 80.4 °F 45.3 °F 30.25 in ESE 6.0 mph 12.0 mph 29% 0.00 in meteobridge W/m2
12:07 81.3 °F 45.1 °F 30.25 in NE 6.9 mph 11.0 mph 28% 0.00 in meteobridge W/m2
12:13 81.9 °F 46.4 °F 30.25 in North 16.1 mph 18.0 mph 29% 0.00 in meteobridge W/m2
12:19 81.9 °F 45.5 °F 30.25 in North 14.1 mph 16.0 mph 28% 0.00 in meteobridge W/m2
12:25 80.8 °F 45.5 °F 30.25 in ENE 6.9 mph 9.0 mph 29% 0.00 in meteobridge W/m2
12:32 81.9 °F 47.3 °F 30.24 in NE 0.9 mph 5.0 mph 30% 0.00 in meteobridge W/m2
12:38 81.1 °F 46.8 °F 30.24 in NNE 4.0 mph 16.0 mph 30% 0.00 in meteobridge W/m2
12:44 81.0 °F 46.6 °F 30.24 in NE 6.9 mph 18.0 mph 30% 0.00 in meteobridge W/m2
12:50 80.2 °F 46.9 °F 30.23 in North 6.9 mph 16.0 mph 31% 0.00 in meteobridge W/m2
12:56 81.0 °F 47.5 °F 30.23 in NNE 6.9 mph 17.0 mph 31% 0.00 in meteobridge W/m2
13:02 82.4 °F 46.0 °F 30.23 in ENE 6.0 mph 21.0 mph 28% 0.00 in meteobridge W/m2
13:06 82.4 °F 45.1 °F 30.24 in NNE 13.0 mph 19.0 mph 27% 0.00 in meteobridge W/m2
13:12 80.6 °F 44.4 °F 30.24 in WNW 11.0 mph 20.0 mph 28% 0.00 in meteobridge W/m2
13:18 82.0 °F 45.7 °F 30.24 in NNW 4.0 mph 13.0 mph 28% 0.00 in meteobridge W/m2
13:22 81.9 °F 45.5 °F 30.23 in NE 4.0 mph 13.0 mph 28% 0.00 in meteobridge W/m2
13:28 81.1 °F 45.9 °F 30.23 in ENE 8.1 mph 12.0 mph 29% 0.00 in meteobridge W/m2
13:35 81.0 °F 45.7 °F 30.23 in NE 6.0 mph 15.0 mph 29% 0.00 in meteobridge W/m2
13:43 79.2 °F 44.2 °F 30.22 in NE 10.1 mph 18.0 mph 29% 0.00 in meteobridge W/m2
13:49 80.8 °F 44.6 °F 30.22 in NE 6.0 mph 13.0 mph 28% 0.00 in meteobridge W/m2
13:55 83.5 °F 45.0 °F 30.21 in NNE 6.0 mph 10.0 mph 26% 0.00 in meteobridge W/m2
14:01 83.7 °F 45.1 °F 30.21 in NNE 2.9 mph 7.0 mph 26% 0.00 in meteobridge W/m2
14:09 83.1 °F 44.6 °F 30.20 in NE 2.0 mph 6.0 mph 26% 0.00 in meteobridge W/m2
14:15 82.4 °F 44.1 °F 30.20 in NNE 4.9 mph 15.0 mph 26% 0.00 in meteobridge W/m2
14:21 82.9 °F 44.6 °F 30.19 in NNE 15.0 mph 15.0 mph 26% 0.00 in meteobridge W/m2
14:34 84.7 °F 45.0 °F 30.19 in NNE 6.0 mph 11.0 mph 25% 0.00 in meteobridge W/m2
14:40 84.9 °F 45.1 °F 30.19 in NNE 12.1 mph 16.0 mph 25% 0.00 in meteobridge W/m2
14:46 82.9 °F 44.6 °F 30.19 in NE 4.0 mph 13.0 mph 26% 0.00 in meteobridge W/m2
14:54 84.6 °F 45.0 °F 30.19 in NNE 4.0 mph 12.0 mph 25% 0.00 in meteobridge W/m2
14:56 85.3 °F 45.5 °F 30.19 in NE 4.0 mph 14.0 mph 25% 0.00 in meteobridge W/m2
15:02 84.9 °F 44.1 °F 30.18 in NE 4.0 mph 6.0 mph 24% 0.00 in meteobridge W/m2
15:08 84.0 °F 44.4 °F 30.18 in Calm   3.0 mph 25% 0.00 in meteobridge W/m2
15:14 83.1 °F 44.6 °F 30.18 in SE 2.0 mph 5.0 mph 26% 0.00 in meteobridge W/m2
15:16 83.1 °F 43.7 °F 30.18 in NE 2.0 mph 5.0 mph 25% 0.00 in meteobridge W/m2
15:22 82.8 °F 43.3 °F 30.18 in North 4.9 mph 7.0 mph 25% 0.00 in meteobridge W/m2
15:29 83.8 °F 44.2 °F 30.17 in NNW 14.1 mph 14.1 mph 25% 0.00 in meteobridge W/m2
15:37 84.7 °F 45.0 °F 30.17 in NNE 6.9 mph 18.0 mph 25% 0.00 in meteobridge W/m2
15:43 84.0 °F 44.4 °F 30.17 in NNE 2.9 mph 12.0 mph 25% 0.00 in meteobridge W/m2
15:45 83.8 °F 44.2 °F 30.17 in North 6.0 mph 9.0 mph 25% 0.00 in meteobridge W/m2
15:53 81.9 °F 43.7 °F 30.17 in NE 0.9 mph 4.0 mph 26% 0.00 in meteobridge W/m2
15:59 81.5 °F 43.3 °F 30.17 in SSW 0.9 mph 5.0 mph 26% 0.00 in meteobridge W/m2
16:06 82.2 °F 43.9 °F 30.16 in SW 0.9 mph 1.0 mph 26% 0.00 in meteobridge W/m2
16:08 83.1 °F 43.7 °F 30.16 in NW 0.9 mph 7.0 mph 25% 0.00 in meteobridge W/m2
16:14 85.3 °F 44.4 °F 30.16 in NNE 13.0 mph 14.0 mph 24% 0.00 in meteobridge W/m2
16:26 83.1 °F 44.6 °F 30.16 in NNE 4.0 mph 10.0 mph 26% 0.00 in meteobridge W/m2
16:32 82.2 °F 45.0 °F 30.16 in NNE 15.0 mph 16.0 mph 27% 0.00 in meteobridge W/m2
16:36 81.9 °F 44.6 °F 30.16 in North 8.1 mph 10.0 mph 27% 0.00 in meteobridge W/m2
16:38 81.7 °F 44.4 °F 30.16 in North 4.9 mph 11.0 mph 27% 0.00 in meteobridge W/m2
16:46 81.9 °F 44.6 °F 30.15 in North 4.9 mph 8.0 mph 27% 0.00 in meteobridge W/m2
16:48 81.9 °F 44.6 °F 30.15 in NNW 0.9 mph 7.0 mph 27% 0.00 in meteobridge W/m2
16:56 83.3 °F 46.8 °F 30.15 in NE 11.0 mph 19.0 mph 28% 0.00 in meteobridge W/m2
17:02 82.0 °F 49.3 °F 30.15 in NNE 25.1 mph 29.0 mph 32% 0.00 in meteobridge W/m2
17:13 78.6 °F 48.7 °F 30.16 in NNE 13.0 mph 22.0 mph 35% 0.00 in meteobridge W/m2
17:23 79.5 °F 48.7 °F 30.16 in North 14.1 mph 21.0 mph 34% 0.00 in meteobridge W/m2
17:31 79.3 °F 48.6 °F 30.16 in North 6.9 mph 19.0 mph 34% 0.00 in meteobridge W/m2
17:37 79.5 °F 48.7 °F 30.16 in NNE 11.0 mph 12.0 mph 34% 0.00 in meteobridge W/m2
17:45 78.4 °F 47.7 °F 30.16 in NNE 16.1 mph 19.0 mph 34% 0.00 in meteobridge W/m2
17:52 77.7 °F 46.4 °F 30.16 in North 21.0 mph 25.0 mph 33% 0.00 in meteobridge W/m2
18:00 76.3 °F 48.0 °F 30.17 in NNE 17.0 mph 20.0 mph 37% 0.00 in meteobridge W/m2
18:08 75.7 °F 48.4 °F 30.17 in NNE 12.1 mph 18.0 mph 38% 0.00 in meteobridge W/m2
18:14 75.6 °F 48.2 °F 30.18 in NNE 6.0 mph 11.0 mph 38% 0.00 in meteobridge W/m2
18:20 75.6 °F 48.9 °F 30.19 in NE 4.9 mph 7.0 mph 39% 0.00 in meteobridge W/m2
18:26 75.6 °F 48.9 °F 30.19 in NE 6.0 mph 6.0 mph 39% 0.00 in meteobridge W/m2
18:33 75.6 °F 48.9 °F 30.20 in NE 6.0 mph -999.0 mph 39% 0.00 in meteobridge W/m2
18:39 75.6 °F 48.9 °F 30.20 in North -999.9 mph -999.0 mph 39% 0.00 in meteobridge W/m2
Regenstein, Windhoek, Namibia
Compliments of Weather Underground - 2.5 mb